Weather History for KDIK - June, 2013

Change the Weather History Date:

Saturday, June 29, 2013

  Actual Average Record
Temperature  
Mean Temperature 66 °F 66 °F  
Max Temperature 80 °F 80 °F 108 °F (1919)
Min Temperature 51 °F 52 °F 37 °F (1947)
Degree Days  
Heating Degree Days 0 2  
Month to date heating degree days 124 134  
Since 1 June heating degree days 124 134  
Since 1 July heating degree days 8554 8574  
Cooling Degree Days 1 3  
Month to date cooling degree days 25 51  
Year to date cooling degree days 34 61  
Since 1 June cooling degree days 25 51  
Growing Degree Days 16 (Base 50)    
Moisture  
Dew Point 52 °F    
Average Humidity 63    
Maximum Humidity 83    
Minimum Humidity 42    
Precipitation  
Precipitation 0.00 in 0.10 in 2.46 in (1986)
Month to date precipitation 2.32 3.10  
Year to date precipitation 9.41 8.21  
Sea Level Pressure  
Sea Level Pressure 30.11 in    
Wind  
Wind Speed 9 mph (NNW)    
Max Wind Speed 18 mph    
Max Gust Speed 25 mph    
Visibility 10 miles    
Events      
T = Trace of Precipitation, MM = Missing Value Source: NWS Daily Summary

Daily Weather History Graph

Daily Weather History Graph

Search for Another Location

Airport or City:

Trip Planner

Search our weather history database for the weather conditions in past years. The results will help you decide how hot, cold, wet, or windy it might be!

Date:

Astronomy

Jun. 29, 2013 Rise Set
Actual Time 5:00 AM MDT 8:49 PM MDT
Civil Twilight 4:20 AM MDT 9:28 PM MDT
Nautical Twilight 3:27 AM MDT 10:22 PM MDT
Astronomical Twilight 2:09 AM MDT 11:39 PM MDT
Moon No Moon Rise 12:43 PM MDT (6/29)
Length of Visible Light 17h 07m
Length of Day
15h 49m
Waning Gibbous, 55% of the Moon is Illuminated
Jun 29
Waning Gibbous
Jun 29
Last Quarter
Jul 8
New
Jul 15
First Quarter
Jul 22
Full

Hourly Weather History & Observations

Time (MDT) Temp. Dew Point Humidity Pressure Visibility Wind Dir Wind Speed Gust Speed Precip Events Conditions
12:56 AM 55.0 °F 48.9 °F 80% 30.12 in 10.0 mi WNW 8.1 mph - N/A   Clear
1:56 AM 54.0 °F 48.0 °F 80% 30.12 in 10.0 mi WNW 8.1 mph - N/A   Clear
2:56 AM 53.1 °F 48.0 °F 83% 30.13 in 10.0 mi WNW 8.1 mph - N/A   Clear
3:56 AM 52.0 °F 46.9 °F 83% 30.13 in 10.0 mi West 8.1 mph - N/A   Clear
4:56 AM 52.0 °F 46.9 °F 83% 30.13 in 10.0 mi West 8.1 mph - N/A   Clear
5:56 AM 54.0 °F 48.9 °F 83% 30.13 in 10.0 mi WNW 8.1 mph - N/A   Clear
6:56 AM 60.1 °F 52.0 °F 75% 30.12 in 10.0 mi West 9.2 mph - N/A   Clear
7:56 AM 66.9 °F 53.1 °F 61% 30.12 in 10.0 mi WNW 10.4 mph - N/A   Clear
8:56 AM 72.0 °F 55.9 °F 57% 30.12 in 10.0 mi WNW 9.2 mph - N/A   Clear
9:56 AM 73.9 °F 51.1 °F 45% 30.12 in 10.0 mi NW 13.8 mph - N/A   Clear
10:56 AM 75.9 °F 53.1 °F 45% 30.12 in 10.0 mi NNW 11.5 mph - N/A   Clear
11:56 AM 75.9 °F 52.0 °F 43% 30.12 in 10.0 mi NNW 16.1 mph - N/A   Clear
12:56 PM 78.1 °F 54.0 °F 43% 30.11 in 10.0 mi NNW 12.7 mph - N/A   Scattered Clouds
1:56 PM 77.0 °F 53.1 °F 43% 30.11 in 10.0 mi NNW 12.7 mph 20.7 mph N/A   Mostly Cloudy
2:56 PM 79.0 °F 53.1 °F 40% 30.10 in 10.0 mi North 10.4 mph 20.7 mph N/A   Partly Cloudy
3:56 PM 75.9 °F 53.1 °F 45% 30.10 in 10.0 mi North 12.7 mph - N/A   Partly Cloudy
4:56 PM 75.0 °F 53.1 °F 46% 30.10 in 10.0 mi North 8.1 mph - N/A   Scattered Clouds
5:56 PM 75.9 °F 53.1 °F 45% 30.09 in 10.0 mi North 10.4 mph - N/A   Clear
6:56 PM 73.0 °F 54.0 °F 51% 30.08 in 10.0 mi NNE 10.4 mph - N/A   Clear
7:56 PM 69.1 °F 57.0 °F 65% 30.08 in 10.0 mi NE 5.8 mph - N/A   Clear
8:56 PM 63.0 °F 54.0 °F 72% 30.09 in 10.0 mi NNE 6.9 mph - N/A   Clear
9:56 PM 61.0 °F 53.1 °F 75% 30.11 in 10.0 mi NE 4.6 mph - N/A   Clear
10:56 PM 61.0 °F 54.0 °F 78% 30.12 in 10.0 mi NE 3.5 mph - N/A   Clear
11:56 PM 59.0 °F 53.1 °F 81% 30.12 in 10.0 mi NE 4.6 mph - N/A   Clear